Content
SEND FEEDBACK

Daily
Averages
Monthly
Summary
United States of America

SLOAN, NORTH CAROLINA


Home > North America > United States > North Carolina
Elevation: 2 meters     Latitude: 34 47N     Longitude: 077 49W

WEATHER
 
SELECT A DAY
Number of Records: 447,015;   Date Range: 1/1/95 - 11/22/14
 
SHARE

PRINT THIS DATA

[ ← Previous Day ]
WEATHER ALMANAC - 3 JANUARY, 2013
[ Next Day → ]
[ °F ]   °C
Weather ElementAverageHighLow
Temperature3.8 °C6 °C (12:35 am)-1 °C (11:35 pm)
Dewpoint1.2 °C3 °C (12:35 am)-2 °C (11:35 pm)
Humidity83.2 %93 % (2:35 am)70 % (2:55 pm)
Barometer1022.7 hPa1025.1 hPa (10:35 pm)1021 hPa (4:35 am)
Wind Speed6.8 km/h14.8 km/h (3:55 am)
Weather ElementAverage
Visibility13.4 km
Wind DirectionENE (63.8 °)

Weather ElementTotal
Precipitation1.27 mm
Heating Degree Days15.8 (Base 18.3)
Averaged from 69 records on 3 January, 2013
WEATHER CONDITIONS BREAKOUT
WIND DIRECTION BREAKOUT
WEATHER BY HOUR - 3 JANUARY, 2013
[ °F ]   °C
Local TimeTemperatureDewpointHumidityBarometerVisibilityWind DirectionWind SpeedGust SpeedPrecipitationEventsConditions
12:35 AM6 °C3 °C81 %1022 hPa12.9 kmNNE (30°)11.1 km/hOvercast
12:55 AM6 °C3 °C81 %1021.7 hPa12.9 kmENE (60°)9.3 km/hOvercast
1:15 AM5 °C3 °C87 %1022.4 hPa12.9 kmNNW (340°)5.6 km/hOvercast
1:35 AM5 °C3 °C87 %1022 hPa11.3 kmCalmScattered Clouds
1:55 AM5 °C3 °C87 %1021.7 hPa11.3 kmNorth (10°)9.3 km/hClear
2:15 AM5 °C3 °C87 %1021.7 hPa9.7 kmNorth (10°)5.6 km/hClear
2:35 AM4 °C3 °C93 %1021.3 hPa8 kmNNE (30°)9.3 km/hClear
2:55 AM4 °C3 °C93 %1021.3 hPa9.7 kmNNE (20°)9.3 km/hClear
3:15 AM4 °C3 °C93 %1022 hPa11.3 kmNorth (10°)13 km/hClear
3:35 AM4 °C2 °C87 %1021.7 hPa11.3 kmNNE (20°)13 km/hClear
3:55 AM4 °C2 °C87 %1021.3 hPa11.3 kmNNE (30°)14.8 km/hClear
4:15 AM4 °C2 °C87 %1021.3 hPa11.3 kmNNE (30°)14.8 km/hClear
4:35 AM4 °C1 °C81 %1021 hPa11.3 kmNE (50°)13 km/hPartly Cloudy
4:55 AM4 °C1 °C81 %1021.3 hPa11.3 kmNNE (30°)14.8 km/hPartly Cloudy
5:15 AM4 °C1 °C81 %1021.3 hPa9.7 kmNNE (30°)13 km/hMostly Cloudy
5:35 AM4 °C1 °C81 %1022 hPa11.3 kmNorth (360°)9.3 km/hMostly Cloudy
5:55 AM4 °C1 °C81 %1021.7 hPa12.9 kmNNE (30°)11.1 km/hMostly Cloudy
6:15 AM4 °C1 °C81 %1022.4 hPa12.9 kmNorth (10°)11.1 km/hPartly Cloudy
6:35 AM4 °C1 °C81 %1022.4 hPa11.3 kmNNE (20°)14.8 km/hPartly Cloudy
6:55 AM4 °C1 °C81 %1023 hPa14.5 kmNNE (20°)9.3 km/hPartly Cloudy
7:15 AM4 °C1 °C81 %1022.7 hPa12.9 kmENE (60°)9.3 km/hPartly Cloudy
7:35 AM4 °C1 °C81 %1022.7 hPa11.3 kmNE (50°)9.3 km/hMostly Cloudy
7:55 AM3 °C2 °C93 %1022.4 hPa6.4 kmNE (40°)9.3 km/h0.25 mmOvercast
8:35 AM4 °C2 °C87 %1022.4 hPa6.4 kmNE (50°)9.3 km/h0.25 mmPartly Cloudy
8:55 AM4 °C2 °C87 %1022.7 hPa8 kmNE (40°)13 km/h0.25 mmClear
9:15 AM4 °C2 °C87 %1022.7 hPa8 kmNE (50°)11.1 km/hPartly Cloudy
9:35 AM4 °C2 °C87 %1023.4 hPa12.9 kmNE (40°)13 km/h0.25 mmPartly Cloudy
9:55 AM4 °C2 °C87 %1023.7 hPa12.9 kmNNE (30°)13 km/h0.25 mmScattered Clouds
10:35 AM4 °C2 °C87 %1024 hPa11.3 kmNorth (10°)11.1 km/hOvercast
10:55 AM4 °C2 °C87 %1023.4 hPa11.3 kmNNE (30°)13 km/hOvercast
11:15 AM4 °C2 °C87 %1023.4 hPa16.1 kmNNE (30°)14.8 km/hOvercast
11:35 AM4 °C2 °C87 %1022.7 hPa16.1 kmNE (40°)13 km/hOvercast
11:55 AM4 °C2 °C87 %1022.4 hPa16.1 kmNE (40°)13 km/hOvercast
12:15 PM4 °C1 °C81 %1022 hPa16.1 kmNE (40°)11.1 km/hOvercast
12:35 PM4 °C1 °C81 %1022 hPa16.1 kmNNE (20°)11.1 km/hOvercast
12:55 PM4 °C1 °C81 %1021.7 hPa16.1 kmNNE (20°)14.8 km/hOvercast
1:15 PM5 °C2 °C81 %1021.3 hPa16.1 kmNorth (360°)9.3 km/hOvercast
1:35 PM5 °C1 °C76 %1021.7 hPa16.1 kmNorth (10°)9.3 km/hOvercast
1:55 PM5 °C1 °C76 %1021.7 hPa16.1 kmNorth (350°)7.4 km/hOvercast
2:15 PM5 °C1 °C76 %1021.7 hPa16.1 kmCalmOvercast
2:35 PM5 °C1 °C76 %1021.3 hPa16.1 kmNNW (330°)5.6 km/hOvercast
2:55 PM5 °C0 °C70 %1022 hPa16.1 kmCalmOvercast
3:15 PM5 °C1 °C76 %1021.7 hPa16.1 kmCalmOvercast
3:35 PM5 °C0 °C70 %1022 hPa16.1 kmNW (320°)7.4 km/hOvercast
3:55 PM5 °C0 °C70 %1022.4 hPa16.1 kmCalmOvercast
4:15 PM5 °C0 °C70 %1022.4 hPa16.1 kmCalmOvercast
4:35 PM5 °C0 °C70 %1022.4 hPa16.1 kmNW (320°)5.6 km/hOvercast
4:55 PM5 °C0 °C70 %1022.4 hPa16.1 kmNNW (330°)9.3 km/hOvercast
5:15 PM5 °C0 °C70 %1022.7 hPa16.1 kmNW (320°)5.6 km/hOvercast
5:35 PM5 °C1 °C76 %1023 hPa16.1 kmNNW (330°)7.4 km/hOvercast
5:55 PM5 °C1 °C76 %1023.4 hPa16.1 kmCalmOvercast
6:15 PM4 °C1 °C81 %1023.7 hPa16.1 kmCalmMostly Cloudy
6:35 PM4 °C1 °C81 %1023.7 hPa16.1 kmCalmScattered Clouds
6:55 PM4 °C1 °C81 %1024 hPa16.1 kmCalmPartly Cloudy
7:15 PM4 °C1 °C81 %1024 hPa16.1 kmCalmClear
7:35 PM4 °C1 °C81 %1024.4 hPa16.1 kmCalmClear
7:55 PM3 °C2 °C93 %1024 hPa16.1 kmCalmClear
8:15 PM3 °C1 °C87 %1024 hPa16.1 kmCalmClear
8:35 PM3 °C1 °C87 %1024 hPa16.1 kmCalmClear
8:55 PM3 °C1 °C87 %1024.4 hPa16.1 kmCalmClear
9:15 PM3 °C1 °C87 %1024.7 hPa16.1 kmCalmPartly Cloudy
9:35 PM2 °C1 °C93 %1024.4 hPa16.1 kmCalmPartly Cloudy
9:55 PM2 °C0 °C87 %1024.7 hPa16.1 kmCalmClear
10:15 PM1 °C0 °C93 %1024.7 hPa16.1 kmCalmClear
10:35 PM1 °C-1 °C87 %1025.1 hPa11.3 kmCalmClear
10:55 PM1 °C-1 °C87 %1025.1 hPa8 kmCalmClear
11:15 PM0 °C-1 °C93 %1024.7 hPa8 kmCalmClear
11:35 PM-1 °C-2 °C93 %1025.1 hPa6.4 kmCalmClear
11:55 PM-1 °C-2 °C93 %1025.1 hPa6.4 kmCalmClear
Hourly data recorded from KOAJ, located 0 kilometers away from Sloan, North Carolina







STORIES FROM OUR PARTNERS